Weather History for Suffolk, VA

Change the Weather History Date:

Saturday, October 27, 2012

  Actual Average Record
Temperature  
Mean Temperature 66 °F -  
Max Temperature 69 °F 67 °F 87 °F (2010)
Min Temperature 62 °F 47 °F 26 °F (1962)
Growing Degree Days 16 (Base 50)    
Moisture  
Dew Point 63 °F    
Average Humidity 91    
Maximum Humidity 100    
Minimum Humidity 78    
Precipitation  
Precipitation 0.08 in - - ()
Sea Level Pressure  
Sea Level Pressure 29.80 in    
Wind  
Wind Speed 11 mph (NNE)    
Max Wind Speed 21 mph    
Max Gust Speed 29 mph    
Visibility 9 miles    
Events Rain    
Averages and records for this station are not official NWS values.
T = Trace of Precipitation, MM = Missing Value Source: NWS Daily Summary

Daily Weather History Graph

Daily Weather History Graph

Search for Another Location

Airport:

Trip Planner

Search our weather history database for the weather conditions in past years. The results will help you decide how hot, cold, wet, or windy it might be!

Date:

Astronomy

Oct. 27, 2012 Rise Set
Actual Time 7:25 AM EDT 6:14 PM EDT
Civil Twilight 6:58 AM EDT 6:40 PM EDT
Nautical Twilight 6:28 AM EDT 7:11 PM EDT
Astronomical Twilight 5:58 AM EDT 7:41 PM EDT
Moon 4:57 PM EDT (10/27) 5:20 AM EDT (10/27)
Length of Visible Light 11h 41m
Length of Day
10h 48m
Waxing Gibbous, 96% of the Moon is Illuminated
Oct 27
Waxing Gibbous
Oct 29
Full
Nov 6
Last Quarter
Nov 13
New
Nov 20
First Quarter

Hourly Weather History & Observations

Time (EDT) Temp. Dew Point Humidity Pressure Visibility Wind Dir Wind Speed Gust Speed Precip Events Conditions
12:15 AM 66.2 °F 64.4 °F 94% 29.95 in 10.0 mi NNE 8.1 mph - N/A   Clear
12:35 AM 66.2 °F 64.4 °F 94% 29.95 in 10.0 mi NNE 6.9 mph - N/A   Clear
1:15 AM 66.2 °F 64.4 °F 94% 29.94 in 10.0 mi NNE 6.9 mph - N/A   Clear
1:35 AM 66.2 °F 64.4 °F 94% 29.93 in 10.0 mi NNE 6.9 mph - N/A   Clear
1:55 AM 64.4 °F 62.6 °F 94% 29.92 in 10.0 mi NNE 6.9 mph - N/A   Clear
2:15 AM 64.4 °F 62.6 °F 94% 29.91 in 10.0 mi NNE 6.9 mph - N/A   Clear
2:35 AM 64.4 °F 62.6 °F 94% 29.90 in 10.0 mi NNE 8.1 mph - N/A   Clear
3:15 AM 66.2 °F 64.4 °F 94% 29.89 in 10.0 mi NNE 9.2 mph - N/A   Mostly Cloudy
3:55 AM 66.2 °F 62.6 °F 88% 29.88 in 10.0 mi NNE 10.4 mph - N/A   Mostly Cloudy
4:15 AM 66.2 °F 62.6 °F 88% 29.87 in 10.0 mi NNE 9.2 mph 17.3 mph N/A   Scattered Clouds
4:35 AM 66.2 °F 62.6 °F 88% 29.87 in 10.0 mi NE 11.5 mph - N/A   Scattered Clouds
4:55 AM 66.2 °F 62.6 °F 88% 29.86 in 10.0 mi NNE 11.5 mph - N/A   Scattered Clouds
5:15 AM 66.2 °F 62.6 °F 88% 29.86 in 10.0 mi NE 11.5 mph - N/A   Mostly Cloudy
5:35 AM 66.2 °F 62.6 °F 88% 29.86 in 10.0 mi NE 12.7 mph - N/A   Mostly Cloudy
5:55 AM 66.2 °F 62.6 °F 88% 29.85 in 10.0 mi NE 11.5 mph 17.3 mph N/A   Mostly Cloudy
6:15 AM 66.2 °F 62.6 °F 88% 29.84 in 10.0 mi NNE 11.5 mph - N/A   Mostly Cloudy
6:35 AM 66.2 °F 62.6 °F 88% 29.84 in 10.0 mi NNE 13.8 mph 17.3 mph N/A   Scattered Clouds
6:55 AM 66.2 °F 62.6 °F 88% 29.84 in 10.0 mi NNE 12.7 mph 17.3 mph N/A   Clear
7:15 AM 66.2 °F 62.6 °F 88% 29.84 in 10.0 mi NNE 13.8 mph 18.4 mph N/A   Clear
7:35 AM 66.2 °F 62.6 °F 88% 29.84 in 10.0 mi NNE 11.5 mph 19.6 mph N/A   Clear
7:55 AM 66.2 °F 62.6 °F 88% 29.84 in 10.0 mi NNE 10.4 mph 17.3 mph N/A   Clear
8:15 AM 66.2 °F 62.6 °F 88% 29.85 in 10.0 mi NE 9.2 mph - N/A   Clear
8:35 AM 66.2 °F 62.6 °F 88% 29.85 in 10.0 mi NE 11.5 mph - N/A   Clear
8:55 AM 66.2 °F 62.6 °F 88% 29.86 in 10.0 mi NE 12.7 mph 20.7 mph N/A   Scattered Clouds
9:15 AM 66.2 °F 62.6 °F 88% 29.85 in 10.0 mi NNE 11.5 mph 25.3 mph N/A   Mostly Cloudy
9:35 AM 66.2 °F 62.6 °F 88% 29.85 in 10.0 mi NNE 10.4 mph 17.3 mph N/A   Scattered Clouds
9:55 AM 68.0 °F 62.6 °F 83% 29.84 in 10.0 mi NE 11.5 mph 16.1 mph N/A   Clear
10:35 AM 68.0 °F 62.6 °F 83% 29.84 in 10.0 mi NE 12.7 mph 21.9 mph N/A   Scattered Clouds
11:15 AM 69.8 °F 62.6 °F 78% 29.83 in 10.0 mi NNE 13.8 mph 23.0 mph N/A   Scattered Clouds
11:35 AM 69.8 °F 62.6 °F 78% 29.82 in 10.0 mi NNE 20.7 mph 28.8 mph N/A   Scattered Clouds
11:55 AM 69.8 °F 62.6 °F 78% 29.82 in 10.0 mi NE 16.1 mph 24.2 mph N/A   Mostly Cloudy
12:15 PM 69.8 °F 62.6 °F 78% 29.82 in 10.0 mi NE 17.3 mph 27.6 mph N/A   Scattered Clouds
12:35 PM 69.8 °F 62.6 °F 78% 29.82 in 10.0 mi NNE 13.8 mph 24.2 mph N/A   Scattered Clouds
12:55 PM 69.8 °F 62.6 °F 78% 29.81 in 10.0 mi NE 18.4 mph 23.0 mph N/A   Scattered Clouds
1:15 PM 68.0 °F 62.6 °F 83% 29.80 in 10.0 mi NE 15.0 mph 24.2 mph N/A   Mostly Cloudy
1:35 PM 66.2 °F 64.4 °F 94% 29.79 in 7.0 mi NE 13.8 mph 19.6 mph N/A Rain Light Rain
2:15 PM 66.2 °F 64.4 °F 94% 29.78 in 7.0 mi NNE 12.7 mph 18.4 mph N/A Rain Light Rain
2:35 PM 66.2 °F 64.4 °F 94% 29.77 in 5.0 mi NNE 16.1 mph 20.7 mph N/A Rain Light Rain
2:55 PM 64.4 °F 64.4 °F 100% 29.77 in 10.0 mi NNE 11.5 mph 17.3 mph N/A Rain Light Rain
3:15 PM 64.4 °F 64.4 °F 100% 29.77 in 7.0 mi NNE 13.8 mph 24.2 mph N/A Rain Light Rain
3:35 PM 64.4 °F 64.4 °F 100% 29.76 in 7.0 mi NNE 13.8 mph 20.7 mph N/A Rain Rain
3:55 PM 64.4 °F 62.6 °F 94% 29.76 in 10.0 mi NNE 15.0 mph 21.9 mph N/A   Light Drizzle
4:15 PM 64.4 °F 62.6 °F 94% 29.75 in 10.0 mi NNE 12.7 mph 21.9 mph N/A   Drizzle
4:35 PM 64.4 °F 62.6 °F 94% 29.75 in 7.0 mi NNE 15.0 mph 25.3 mph N/A Rain Light Rain
4:55 PM 64.4 °F 62.6 °F 94% 29.75 in 7.0 mi NNE 13.8 mph 23.0 mph N/A Rain Light Rain
5:15 PM 64.4 °F 62.6 °F 94% 29.74 in 7.0 mi NNE 13.8 mph 23.0 mph N/A Rain Light Rain
5:35 PM 64.4 °F 62.6 °F 94% 29.74 in 7.0 mi NNE 13.8 mph 19.6 mph N/A Rain Light Rain
5:55 PM 62.6 °F 62.6 °F 100% 29.73 in 10.0 mi NNE 15.0 mph 23.0 mph N/A Rain Light Rain
6:15 PM 62.6 °F 62.6 °F 100% 29.73 in 10.0 mi NNE 11.5 mph 24.2 mph N/A Rain Rain
6:35 PM 62.6 °F 62.6 °F 100% 29.73 in 10.0 mi NNE 15.0 mph 24.2 mph N/A Rain Light Rain
6:55 PM 62.6 °F 62.6 °F 100% 29.73 in 7.0 mi NNE 12.7 mph 24.2 mph N/A Rain Light Rain
7:15 PM 62.6 °F 62.6 °F 100% 29.72 in 7.0 mi NNE 15.0 mph 24.2 mph N/A Rain Light Rain
7:35 PM 62.6 °F 62.6 °F 100% 29.73 in 10.0 mi NNE 12.7 mph 24.2 mph N/A Rain Light Rain
7:55 PM 62.6 °F 62.6 °F 100% 29.74 in 10.0 mi NE 17.3 mph 20.7 mph N/A Rain Light Rain
8:15 PM 62.6 °F 62.6 °F 100% 29.74 in 7.0 mi NNE 16.1 mph 24.2 mph N/A Rain Rain
8:35 PM 62.6 °F 60.8 °F 94% 29.74 in 7.0 mi NNE 13.8 mph 21.9 mph N/A Rain Light Rain
8:55 PM 62.6 °F 60.8 °F 94% 29.73 in 7.0 mi NNE 13.8 mph 24.2 mph N/A Rain Light Rain
9:15 PM 62.6 °F 60.8 °F 94% 29.72 in 10.0 mi NNE 10.4 mph 25.3 mph N/A Rain Light Rain
9:35 PM 62.6 °F 60.8 °F 94% 29.72 in 10.0 mi NNE 12.7 mph 23.0 mph N/A Rain Light Rain
9:55 PM 62.6 °F 60.8 °F 94% 29.73 in 7.0 mi NNE 17.3 mph 24.2 mph N/A Rain Light Rain
10:15 PM 62.6 °F 60.8 °F 94% 29.72 in 10.0 mi NNE 12.7 mph 21.9 mph N/A Rain Light Rain
10:35 PM 62.6 °F 60.8 °F 94% 29.71 in 10.0 mi NNE 16.1 mph 23.0 mph N/A Rain Light Rain
10:55 PM 62.6 °F 60.8 °F 94% 29.70 in 7.0 mi NNE 13.8 mph 23.0 mph N/A Rain Light Rain
11:15 PM 62.6 °F 60.8 °F 94% 29.71 in 10.0 mi NNE 16.1 mph 23.0 mph 0.03 in Rain Rain
11:35 PM 62.6 °F 60.8 °F 94% 29.69 in 10.0 mi NNE 13.8 mph 27.6 mph 0.07 in Rain Rain
11:55 PM 62.6 °F 60.8 °F 94% 29.67 in 10.0 mi North 15.0 mph 23.0 mph 0.08 in Rain Light Rain